Wind_Speed
8 8 8 8 8 8 8 8 8 8 8 8 8 8 9 10 10 10 10 11 12 13 13 14 14 14 15 16 16 17 18 18 18 18 18 18 18 18 18 18 19 18 18
8 8 8 8 9 9 9 9 10 9 9 10 10 10 10 11 11 11 12 12 13 14 14 15 15 16 16 17 17 18 19 19 19 19 20 20 20 20 20 20 20 19 19
9 9 9 9 9 10 10 11 11 11 11 11 11 11 12 12 12 13 13 14 15 15 15 16 16 17 17 18 19 20 20 21 21 21 21 22 22 22 21 21 21 21 21
11 11 11 10 11 11 11 11 12 12 12 13 13 13 13 14 14 14 15 16 16 16 17 17 18 18 19 20 21 21 22 23 23 23 23 24 23 23 23 22 22 22 22
12 12 12 13 13 12 13 13 13 13 14 14 15 15 15 15 15 16 16 17 17 18 18 19 19 20 21 22 23 24 24 24 25 25 25 24 24 24 24 24 23 23 23
13 13 14 14 14 13 14 14 15 15 16 16 17 17 17 17 17 17 17 18 19 19 20 20 21 22 23 23 24 25 26 26 26 27 26 26 26 26 25 25 25 24 25
15 15 15 15 15 16 16 16 16 17 17 17 18 18 18 18 19 20 20 20 21 21 22 22 23 24 25 25 26 27 27 28 28 28 27 27 28 28 28 27 26 26 26
18 18 18 17 18 18 17 17 17 18 18 19 19 20 20 21 21 22 22 23 23 24 24 25 26 26 27 27 28 29 29 29 30 30 29 29 29 30 29 29 28 28 28
19 19 19 19 19 19 19 19 19 19 20 20 21 22 22 23 23 24 25 25 25 26 26 27 28 28 29 29 30 30 31 31 31 32 31 31 31 31 30 30 30 29 29
21 21 21 21 21 20 20 20 21 21 22 23 23 24 25 25 25 26 26 27 27 28 28 29 30 30 30 31 32 32 32 32 32 32 32 32 31 31 31 31 30 30 30
23 24 24 23 23 23 22 23 23 24 24 25 26 26 27 27 28 28 29 29 29 30 31 31 31 32 32 32 33 33 33 33 33 33 33 33 32 31 31 31 31 31 31
26 25 25 24 24 25 26 25 26 26 27 27 28 28 29 30 30 30 30 31 32 32 33 33 34 34 34 34 34 34 34 34 34 34 34 33 33 32 31 30 31 31 31
26 27 26 26 26 27 28 28 28 29 29 29 30 30 31 31 31 32 32 33 34 34 35 35 35 36 35 35 34 34 34 34 34 34 34 33 32 31 31 31 32 32 32
28 28 28 28 28 29 29 30 30 30 31 31 31 31 32 32 33 34 34 35 36 36 36 36 37 36 35 35 35 34 34 35 34 34 33 32 32 32 32 32 32 33 33
30 31 31 30 30 31 31 31 31 32 33 33 33 33 34 34 35 35 36 36 35 36 37 38 38 36 36 36 36 35 35 35 34 34 34 33 33 33 33 34 34 34 34
32 32 32 32 32 32 33 33 32 33 34 34 35 35 35 36 36 36 36 36 36 37 38 39 39 37 36 36 36 35 34 34 34 34 34 34 34 34 34 34 34 35 34
33 33 33 34 34 34 34 34 34 35 35 36 37 37 37 37 37 37 37 37 38 39 39 39 38 38 37 37 36 36 35 33 33 34 35 34 35 36 36 36 35 35 35
33 33 34 35 35 35 36 36 37 37 37 37 38 38 38 38 38 38 38 38 39 39 38 37 37 37 37 37 37 37 35 34 34 35 36 36 36 37 37 37 37 37 36
34 34 35 35 36 37 37 38 39 39 39 38 38 38 38 38 39 39 39 39 39 39 37 37 37 37 37 37 37 37 36 36 35 36 37 37 37 38 38 38 38 37 36
34 35 36 36 37 38 38 39 39 40 40 39 39 40 39 39 38 38 38 38 38 38 37 37 36 36 36 37 37 37 37 37 36 36 36 36 37 38 39 39 38 38 36
34 35 36 37 37 38 39 39 39 39 39 39 38 39 38 38 37 37 37 37 37 38 38 37 37 36 36 36 37 37 36 36 37 37 37 37 37 38 39 38 38 38 37
35 36 37 37 37 38 39 39 38 37 37 38 38 38 37 38 38 38 37 37 36 36 36 37 37 36 37 38 37 37 37 37 36 36 36 37 37 38 38 37 37 38 38
34 36 36 37 37 37 38 38 38 38 38 38 38 38 39 39 39 38 37 36 36 37 37 38 37 37 38 38 37 37 36 35 36 37 37 37 38 38 37 37 38 38 37
34 35 36 36 37 37 38 38 39 39 39 39 39 39 39 39 39 38 38 38 38 38 38 38 38 38 38 38 38 37 37 37 38 38 38 38 38 38 38 38 39 38 37
34 35 36 37 37 37 38 38 38 38 38 38 38 37 37 38 38 37 37 38 39 39 38 39 39 39 38 38 38 38 38 39 40 39 39 39 39 39 39 39 38 37 36
34 34 35 36 36 37 37 37 37 36 35 36 37 37 37 37 38 38 38 38 38 38 38 38 38 38 39 39 39 40 41 41 41 40 40 41 40 40 39 39 38 37 37
Wind_Direction
308 307 308 309 312 312 310 311 316 316 316 314 314 318 320 318 316 320 322 323 323 325 325 325 324 325 328 329 330 332 332 333 333 332 332 330 329 329 327 325 322 319 317
302 306 307 309 310 309 307 308 311 309 308 307 306 310 313 316 314 312 314 317 320 320 321 321 321 321 323 326 328 329 329 330 329 328 327 326 325 325 324 323 321 318 315
295 297 300 303 306 305 305 306 308 309 306 305 305 306 309 311 312 309 310 313 315 317 317 319 319 319 319 322 324 324 324 324 324 322 322 322 321 320 319 319 318 316 315
292 290 291 295 297 299 301 303 305 306 306 305 303 304 306 308 309 309 308 310 312 313 314 315 316 316 316 316 319 321 320 319 319 318 318 318 318 316 315 315 314 313 312
292 289 287 288 291 293 296 298 301 302 302 301 301 302 303 304 305 306 307 309 310 310 311 312 314 314 314 314 315 317 317 317 316 314 314 314 315 314 313 310 310 309 309
290 290 286 285 287 290 294 296 297 298 299 301 301 301 301 301 301 301 303 306 308 308 310 310 310 311 311 312 312 314 314 314 313 312 310 310 310 310 310 309 307 307 307
285 286 287 285 284 286 290 294 296 297 297 299 299 298 298 298 299 299 299 301 304 305 306 307 308 309 309 309 309 309 310 311 311 311 309 308 308 308 309 308 307 307 307
286 285 283 282 282 283 287 290 292 293 294 294 296 298 296 296 296 296 296 298 302 303 303 304 305 306 307 306 306 306 307 308 307 306 307 307 307 306 307 307 307 305 305
283 286 285 284 285 285 285 288 291 292 294 294 293 294 294 293 292 294 294 296 299 301 302 303 304 305 305 304 304 304 304 305 304 303 304 305 305 305 305 304 304 304 304
279 282 284 285 284 284 285 287 289 289 290 292 293 294 293 292 292 292 293 295 297 298 300 301 302 303 303 302 302 302 302 303 303 302 302 303 303 302 303 304 303 302 302
278 281 284 283 284 283 284 285 287 290 291 292 294 294 293 293 292 292 294 295 297 297 298 298 299 299 300 301 302 302 302 302 301 301 301 301 301 300 301 301 300 300 300
277 279 281 282 282 282 282 283 287 289 291 292 293 293 293 293 292 293 294 294 295 296 298 300 299 299 299 300 300 301 301 301 301 301 300 298 299 299 299 298 298 298 299
275 277 279 280 282 283 282 282 285 287 288 290 291 293 293 294 293 293 293 293 293 294 297 298 299 300 297 297 299 299 300 300 300 301 301 299 299 298 297 297 297 297 298
273 276 278 280 282 284 284 284 285 287 288 289 290 291 293 294 293 293 293 292 293 295 297 297 298 299 299 298 297 298 298 299 298 299 300 299 297 297 297 297 297 297 297
273 275 277 279 282 284 286 286 286 287 289 290 290 293 293 294 294 293 294 294 294 295 296 298 299 299 299 298 297 297 297 297 297 298 298 298 297 297 298 297 297 297 298
274 275 277 278 280 282 285 286 287 287 287 288 290 291 292 293 293 292 292 293 293 294 295 296 297 299 298 297 296 297 296 296 296 297 297 297 297 297 297 296 296 295 296
275 276 276 278 280 282 283 285 287 288 288 288 288 289 291 292 292 291 291 291 292 293 294 294 295 297 298 297 296 297 295 294 295 296 297 296 296 297 298 297 296 295 295
275 276 277 278 280 281 282 284 285 287 288 288 287 287 289 290 290 290 291 292 293 294 295 295 296 296 297 297 296 296 294 293 293 293 294 295 295 296 297 297 297 295 294
275 276 278 279 281 282 283 284 286 287 288 289 288 286 287 288 289 291 293 294 295 296 296 298 297 295 295 295 295 295 294 293 292 292 293 294 295 295 296 297 296 295 294
275 277 278 280 281 283 284 285 286 287 288 289 289 288 288 288 290 291 293 296 296 296 297 296 296 296 296 296 295 296 295 295 295 296 295 294 295 295 295 295 294 293 292
275 277 279 281 283 284 285 286 287 287 288 289 290 291 290 290 292 293 294 296 297 297 298 297 296 297 297 296 295 295 295 295 296 296 296 295 295 295 296 295 294 292 291
275 277 280 282 283 285 286 287 287 287 288 288 289 290 290 291 292 293 294 296 296 297 297 297 296 296 298 298 298 298 297 296 296 296 297 297 296 296 296 295 294 292 290
276 278 280 282 283 285 287 288 288 287 287 287 288 289 290 291 292 293 293 295 295 296 296 296 297 297 298 298 298 297 297 297 297 297 297 297 297 296 296 295 294 293 291
278 279 281 283 285 287 289 289 289 287 286 287 288 289 290 290 291 291 293 293 294 294 294 295 295 295 295 296 296 296 298 298 298 298 298 298 298 296 296 296 295 293 291
278 280 282 283 285 287 289 290 290 289 289 288 288 291 291 289 291 292 292 292 292 291 292 294 294 295 294 295 295 296 298 299 298 298 297 297 298 298 297 296 294 293 291
278 281 284 285 287 289 290 289 288 289 289 290 290 290 291 289 290 291 291 291 291 291 291 292 293 294 295 295 295 297 298 298 298 298 298 298 298 298 297 296 294 292 291
Height
5904 5903 5902 5902 5901 5901 5901 5900 5899 5899 5898 5898 5897 5897 5896 5895 5894 5893 5892 5891 5890 5888 5887 5885 5883 5882 5880 5878 5876 5873 5871 5868 5865 5863 5861 5858 5855 5853 5851 5848 5846 5843 5841
5902 5902 5901 5901 5900 5900 5899 5898 5898 5897 5897 5896 5896 5895 5894 5893 5892 5891 5890 5889 5888 5886 5885 5883 5881 5879 5877 5875 5873 5871 5868 5865 5863 5860 5857 5855 5852 5849 5847 5844 5842 5840 5837
5901 5900 5900 5899 5899 5898 5897 5897 5896 5895 5895 5894 5894 5893 5892 5891 5890 5889 5887 5886 5885 5883 5882 5880 5878 5876 5874 5872 5870 5867 5865 5862 5859 5857 5854 5851 5848 5845 5843 5840 5837 5835 5832
5898 5898 5898 5897 5897 5896 5896 5895 5894 5893 5893 5892 5891 5890 5889 5888 5887 5886 5885 5883 5882 5880 5878 5877 5875 5873 5871 5868 5866 5863 5861 5858 5855 5852 5850 5847 5844 5841 5838 5835 5832 5829 5827
5896 5895 5895 5895 5894 5894 5893 5892 5891 5891 5890 5889 5888 5887 5886 5885 5884 5883 5881 5880 5878 5877 5875 5873 5871 5869 5866 5864 5862 5859 5856 5853 5850 5848 5845 5842 5839 5835 5833 5830 5827 5824 5821
5893 5893 5892 5892 5891 5891 5890 5889 5888 5887 5886 5886 5885 5884 5883 5882 5881 5879 5878 5876 5874 5872 5871 5868 5866 5864 5861 5859 5857 5854 5851 5848 5845 5842 5839 5836 5833 5830 5826 5824 5821 5818 5815
5890 5889 5889 5888 5888 5887 5886 5885 5885 5884 5883 5882 5881 5880 5879 5878 5876 5875 5873 5871 5869 5867 5865 5863 5861 5859 5856 5854 5851 5848 5845 5842 5839 5836 5833 5829 5826 5823 5820 5817 5814 5812 5809
5886 5886 5885 5884 5884 5883 5882 5881 5880 5879 5878 5877 5876 5875 5874 5873 5871 5870 5868 5866 5864 5862 5860 5858 5855 5852 5850 5847 5845 5842 5839 5836 5832 5829 5826 5823 5820 5816 5813 5811 5808 5805 5802
5882 5881 5880 5880 5879 5878 5878 5876 5875 5874 5873 5872 5871 5869 5868 5867 5865 5864 5862 5860 5858 5856 5854 5852 5849 5846 5844 5840 5837 5835 5832 5829 5825 5822 5819 5815 5813 5809 5806 5803 5801 5798 5795
5876 5876 5875 5875 5874 5873 5872 5871 5870 5869 5868 5866 5865 5864 5862 5861 5859 5857 5855 5853 5851 5849 5847 5845 5842 5839 5836 5833 5830 5827 5824 5821 5817 5814 5811 5808 5805 5802 5799 5796 5793 5790 5787
5870 5870 5869 5869 5868 5867 5867 5865 5864 5863 5862 5860 5859 5857 5855 5854 5852 5850 5848 5845 5843 5841 5839 5836 5834 5831 5828 5825 5822 5819 5815 5812 5809 5806 5803 5800 5797 5794 5791 5788 5785 5781 5779
5864 5863 5863 5862 5861 5861 5860 5858 5857 5856 5855 5853 5851 5850 5848 5846 5844 5842 5840 5837 5834 5832 5830 5827 5825 5822 5819 5816 5813 5810 5806 5803 5800 5797 5794 5791 5788 5785 5782 5779 5776 5773 5770
5857 5857 5856 5855 5854 5853 5852 5851 5850 5848 5847 5845 5843 5842 5840 5838 5835 5833 5831 5828 5825 5822 5820 5818 5815 5812 5809 5806 5804 5801 5797 5794 5791 5788 5785 5782 5778 5776 5773 5770 5768 5765 5762
5849 5849 5849 5848 5847 5846 5844 5843 5841 5840 5838 5837 5835 5833 5831 5829 5827 5824 5821 5818 5815 5812 5810 5807 5805 5802 5799 5796 5794 5791 5788 5785 5781 5778 5775 5772 5769 5766 5764 5761 5758 5755 5753
5841 5841 5840 5839 5839 5837 5836 5835 5834 5832 5830 5827 5826 5824 5822 5820 5818 5815 5811 5808 5805 5802 5800 5797 5795 5792 5789 5786 5784 5781 5778 5775 5771 5768 5765 5762 5760 5757 5755 5752 5749 5746 5743
5832 5832 5831 5831 5830 5829 5827 5826 5825 5823 5821 5819 5817 5814 5812 5810 5807 5805 5802 5799 5796 5793 5790 5787 5785 5782 5779 5776 5773 5770 5767 5764 5761 5758 5755 5752 5750 5747 5745 5742 5739 5736 5733
5823 5822 5822 5821 5820 5819 5818 5817 5815 5814 5812 5809 5807 5804 5802 5800 5797 5794 5792 5788 5785 5782 5779 5777 5775 5772 5768 5765 5762 5760 5757 5754 5751 5748 5745 5742 5740 5737 5734 5731 5728 5725 5723
5813 5812 5812 5811 5810 5809 5808 5806 5804 5803 5801 5799 5797 5794 5792 5789 5787 5784 5781 5778 5775 5772 5768 5766 5763 5761 5758 5755 5752 5749 5746 5743 5741 5738 5735 5732 5729 5726 5723 5720 5717 5715 5712
5803 5802 5801 5800 5799 5798 5797 5795 5793 5791 5789 5787 5785 5783 5781 5778 5776 5773 5770 5767 5764 5761 5758 5755 5752 5750 5747 5744 5741 5738 5735 5732 5729 5727 5724 5721 5718 5715 5712 5709 5706 5704 5701
5792 5792 5791 5790 5789 5787 5786 5784 5782 5780 5777 5775 5773 5771 5769 5767 5764 5762 5759 5756 5753 5750 5747 5743 5740 5738 5735 5733 5730 5727 5724 5721 5718 5715 5712 5709 5706 5703 5700 5698 5695 5692 5690
5782 5782 5781 5779 5778 5777 5775 5773 5771 5769 5766 5764 5762 5760 5758 5756 5753 5751 5748 5745 5741 5738 5735 5732 5729 5726 5724 5722 5719 5716 5713 5710 5707 5704 5701 5698 5694 5692 5689 5686 5683 5681 5679
5772 5772 5771 5770 5768 5766 5764 5762 5759 5757 5755 5753 5751 5749 5747 5744 5742 5739 5737 5734 5731 5728 5725 5722 5719 5716 5714 5711 5708 5705 5702 5698 5695 5693 5690 5687 5683 5680 5677 5674 5672 5670 5667
5763 5762 5760 5759 5758 5756 5754 5751 5749 5747 5745 5743 5741 5738 5736 5733 5731 5728 5725 5722 5720 5717 5715 5712 5709 5707 5704 5701 5698 5694 5691 5687 5684 5682 5679 5675 5672 5669 5666 5663 5660 5658 5656
5753 5751 5750 5748 5747 5745 5743 5740 5738 5736 5734 5732 5729 5727 5725 5722 5720 5717 5715 5712 5710 5708 5705 5702 5699 5696 5693 5690 5687 5683 5679 5676 5673 5670 5667 5664 5660 5657 5654 5651 5649 5646 5644
5743 5742 5740 5738 5736 5734 5732 5730 5727 5725 5723 5721 5719 5716 5713 5710 5708 5705 5703 5701 5699 5696 5694 5691 5689 5686 5683 5679 5676 5673 5669 5666 5662 5658 5655 5652 5649 5646 5643 5640 5637 5634 5632
5733 5732 5730 5728 5726 5724 5721 5719 5716 5714 5712 5710 5708 5706 5702 5700 5697 5695 5692 5690 5688 5685 5682 5680 5677 5675 5671 5668 5665 5661 5658 5654 5651 5647 5644 5641 5638 5634 5631 5628 5625 5623 5621